Home   Weather   State College   Past weeks
Flag for USA

Past Weather in State College, Pennsylvania, USA — Yesterday and Last 2 Weeks

Now
40 °F

Clear.


Feels Like: 36 °F
Forecast: 58 / 32 °F
Wind: 7 mph from Northwest

Location: University Park Airport

Current Time: Oct 19, 2019 at 1:10:48 am

Latest Report: Oct 19, 2019 at 12:35 am


Visibility: 10 mi

Pressure: 30.07 "Hg

Humidity: 86%

Dew Point: 36 °F

Location of State CollegeLocation

Past Weather in State College — Graph

°F

State College Temperature Yesterday

Maximum temperature yesterday: 54 °F (at 2:53 pm)
Minimum temperature yesterday: 40 °F (at 11:20 pm)
Average temperature yesterday: 46 °F

High & Low Weather Summary for the Past Weeks

 TemperatureHumidityPressure
High68 °F (Oct 10, 4:53 pm)100% (Oct 3, 11:16 pm)30.42 "Hg (Oct 3, 11:16 pm)
Low36 °F (Oct 5, 6:53 am)39% (Oct 14, 2:53 pm)29.48 "Hg (Oct 17, 5:53 am)
Average51 °F79%30.08 "Hg
* Reported Oct 3 11:16 pm — Oct 18 11:56 pm, State College. Weather by CustomWeather, © 2019

Note: Actual official high and low records may vary slightly from our data, if they occured in-between our weather recording intervals... More about our weather records

Advertising

State College Weather History for the Previous 24 Hours

Scroll right to see more
 ConditionsComfort  
Time TempWeatherWind HumidityBarometerVisibility
11:56 pm
Fri, Oct 18
40 °FClear.No wind84%30.08 "Hg10 mi
11:38 pm40 °FClear.No wind88%30.07 "Hg10 mi
11:20 pm40 °FClear.3 mph86%30.07 "Hg10 mi
10:36 pm41 °FClear.3 mph84%30.07 "Hg10 mi
10:15 pm45 °FClear.6 mph73%30.06 "Hg10 mi
9:53 pm45 °FClear.6 mph76%30.05 "Hg10 mi
8:53 pm46 °FClear.6 mph66%30.03 "Hg10 mi
7:53 pm48 °FClear.5 mph62%30.02 "Hg10 mi
6:53 pm50 °FClear.5 mph54%30.00 "Hg10 mi
5:53 pm54 °FSunny.8 mph47%30.00 "Hg10 mi
4:53 pm54 °FSunny.12 mph47%29.99 "Hg10 mi
3:53 pm54 °FScattered clouds.15 mph47%29.98 "Hg10 mi
2:53 pm54 °FScattered clouds.8 mph51%29.98 "Hg10 mi
1:53 pm52 °FScattered clouds.9 mph54%30.01 "Hg10 mi
12:53 pm52 °FScattered clouds.9 mph54%30.00 "Hg10 mi
11:53 am50 °FPartly sunny.10 mph58%29.99 "Hg10 mi
10:53 am48 °FPartly sunny.13 mph58%29.99 "Hg10 mi
9:53 am45 °FPartly sunny.8 mph66%29.98 "Hg10 mi
8:53 am45 °FBroken clouds.8 mph71%29.96 "Hg10 mi
7:53 am45 °FPartly sunny.12 mph71%29.93 "Hg10 mi
6:53 am45 °FOvercast.9 mph71%29.92 "Hg10 mi
5:53 am45 °FOvercast.3 mph71%29.90 "Hg10 mi
5:36 am44 °FMostly cloudy.7 mph74%29.89 "Hg10 mi
5:15 am44 °FOvercast.6 mph74%29.88 "Hg10 mi
4:39 am44 °FOvercast.6 mph74%29.87 "Hg10 mi
4:16 am44 °FOvercast.7 mph76%29.87 "Hg10 mi
3:56 am44 °FOvercast.7 mph77%29.85 "Hg10 mi
3:36 am44 °FOvercast.5 mph75%29.85 "Hg10 mi
3:18 am44 °FOvercast.7 mph75%29.85 "Hg10 mi
2:58 am44 °FOvercast.5 mph75%29.85 "Hg10 mi
2:38 am45 °FOvercast.6 mph74%29.85 "Hg10 mi
2:15 am44 °FOvercast.8 mph74%29.85 "Hg10 mi
1:55 am45 °FOvercast.8 mph74%29.84 "Hg10 mi
1:36 am45 °FOvercast.9 mph74%29.84 "Hg10 mi
1:17 am45 °FOvercast.7 mph75%29.84 "Hg10 mi
Weather by CustomWeather, © 2019

See weather overview